Location: Santa Maria di Sala
(45.5070°N, 12.0300°E)
Time: 18:24:01
(UTC+02:00)

Vanguard 3 - Visible Passes

Search period start: 27 May 2022 00:00
Search period end: 06 June 2022 00:00
Orbit: 508 x 3258 km, 33.3° (Epoch: 26 May)

Date Brightness Start Highest point End Pass type
(mag) Time Alt. Az. Time Alt. Az. Time Alt. Az.
27 May 8.4 04:17:46 14° SW 04:19:48 18° S 04:23:50 10° SE visible
28 May 8.7 03:07:38 13° SSE 03:07:38 13° SSE 03:08:50 10° SE visible
29 May 8.5 04:02:08 14° SSW 04:02:27 14° S 04:05:08 10° SSE visible
02 Jun 8.8 21:50:15 10° S 21:52:11 12° SSE 21:53:44 10° SSE visible
03 Jun 8.5 22:45:37 10° SW 22:48:26 16° S 22:48:26 16° S visible
04 Jun 8.7 21:30:46 10° SSW 21:34:46 16° S 21:37:54 10° SE visible
04 Jun 9.0 23:42:25 10° SW 23:43:02 12° SW 23:43:02 12° SW visible
05 Jun 8.2 22:27:07 10° SW 22:31:38 20° S 22:32:58 18° SSE visible
